Notices

What's New in latest Release from April 7th, 2021:

- Updated Glossary, including Speed of Maximum Gust, and Total Hourly Precipitation

- Updated national and regional climate services offices contacts and prices information

- Addition of station inventory lists for 1981-2010, 1971-2000, and 1961-1990 Normals.

If you haven't already, please take our survey and provide feedback about our website: https://eccc.sondage-survey.ca/f/LanguageSelection.aspx?s=442ca660-fcf1-47c0-95a9-59707d6fd709

Hourly Data Report for November 19, 2020

VICTORIA UNIVERSITY CS
BRITISH COLUMBIA
Current Station Operator: ECCC - MSC

48°27'25.200" N
123°18'16.600" W
60.10 m
1018598
71783
WYJ

Download Data

Hourly Data (November 2020)
Hourly Data Report for November 19, 2020
TIME
LST
Temp Definition
°C
Dew Point Definition
°C
Rel Hum Definition
%
Precip. Amount Definition
mm

Wind Dir Definition
10's deg

Wind Spd Definition
km/h
Visibility Definition
km
Stn Press Definition
kPa
Hmdx Definition


Wind Chill Definition


Weather Definition


00:00 6.2 5.3 94 0.0 25 8   100.39     LegendNANA
01:00 6.5 5.2 91 0.0 23 9   100.48     LegendNANA
02:00 6.4 5.1 92 0.0 24 9   100.58     LegendNANA
03:00 6.4 5.1 91 0.0 25 9   100.71     LegendNANA
04:00 5.7 4.6 93 0.0 24 4   100.80     LegendNANA
05:00 4.6 4.2 97 0.0 24 4   100.90     LegendNANA
06:00 5.9 4.4 90 0.4 24 7   101.02     LegendNANA
07:00 5.0 3.5 90 0.0 24 8   101.15     LegendNANA
08:00 4.0 3.2 94 0.0 25 4   101.26     LegendNANA
09:00 6.2 3.7 84 0.0 19 5   101.38     LegendNANA
10:00 8.3 4.7 78 0.3 18 5   101.49     LegendNANA
11:00 7.6 4.9 83 0.0 14 2   101.58     LegendNANA
12:00 8.2 6.4 88 0.0 13 2   101.63     LegendNANA
13:00 8.7 6.3 85 0.0 15 4   101.64     LegendNANA
14:00 7.7 6.4 91 0.0 17 6   101.70     LegendNANA
15:00 7.7 5.0 83 0.0 13 2   101.73     LegendNANA
16:00 6.7 5.7 93 0.0 14 2   101.75     LegendNANA
17:00 5.6 4.0 90 0.0 18 3   101.78     LegendNANA
18:00 6.1 4.6 90 0.0 17 4   101.81     LegendNANA
19:00 5.4 5.2 99 0.0 17 3   101.84     LegendNANA
20:00 7.0 6.5 97 0.0 14 3   101.89     LegendNANA
21:00 6.9 6.3 96 0.0 13 3   101.96     LegendNANA
22:00 6.8 6.3 97 0.0 13 2   101.97     LegendNANA
23:00 5.8 5.6 99 0.0 9 1   102.00     LegendNANA

Notes on Data Quality.

Legend

  • E = Estimated
  • M = Missing
  • NA = Not Available*
  • [empty] = Indicates an unobserved value
Date modified: